Regional Weather Roundup
Issued by NWS

Home | Current Version | Previous Version | Graphics & Text | Print | Product List | Glossary On
Versions: 1 2 3 4 5 6 7 8 9 10 11 12 13 14 15 16 17 18 19 20 21 22 23 24 25 26 27 28 29 30 31 32 33 34 35 36 37 38 39 40 41 42 43 44 45 46 47 48 49 50
000
ASUS43 KMPX 230201
RWRMN
WEATHER ROUNDUP FOR MINNESOTA
NATIONAL WEATHER SERVICE TWIN CITIES/CHANHASSEN MN
900 PM CDT FRI MAY 22 2015


NOTE: "FAIR" INDICATES FEW OR NO CLOUDS BELOW 12,000 FEET WITH NO
SIGNIFICANT WEATHER AND/OR OBSTRUCTIONS TO VISIBILITY. N/A MEANS
CURRENT SKY AND/OR WEATHER CONDITIONS ARE NOT AVAILABLE.

MNZ060>063-068>070-230300-
   Twin Cities Metro

CITY           SKY/WX    TMP DP  RH WIND       PRES   REMARKS
TWIN CITIES    MOCLDY    70  34  26 S3        30.18S
ST PAUL        MOCLDY    64  42  44 CALM      30.19R
CRYSTAL        MOCLDY    65  39  38 CALM      30.17S
LAKEVILLE      MOCLDY    63  41  45 CALM      30.19R
EDEN PRAIRIE   MOCLDY    64  40  41 CALM      30.17S
SOUTH ST PAUL  MOCLDY    67  35  30 CALM      30.18S
LAKE ELMO      FAIR      61  41  48 CALM      30.20S
$$
MNZ001>005-007-008-013>017-022>024-027-028-230300-
   Northwest Minnesota

CITY           SKY/WX    TMP DP  RH WIND       PRES   REMARKS
BEMIDJI        CLEAR     65  38  37 CALM      30.14R
HALLOCK        PTCLDY    66  46  48 SW9       30.08S
ROSEAU         PTCLDY    66  46  48 SW7       30.09S
WARROAD        PTCLDY    66  46  48 SW5       30.10R
THIEF RVR FALL CLEAR     66  37  34 SW6       30.13R
CROOKSTON      CLEAR     66  39  37 SW6       30.12S
FOSSTON        CLEAR     64  36  34 CALM      30.14S
DETROIT LAKES  CLEAR     64  37  36 S3        30.17R
MOORHEAD       PTCLDY    70  39  32 SE5       30.14R
PARK RAPIDS    CLEAR     64  39  39 S7        30.15R
MAHNOMEN       FAIR      67  39  36 SW7       30.14R
$$
MNZ006-009>011-018-025>026-230300-
   North Central Minnesota

CITY           SKY/WX    TMP DP  RH WIND       PRES   REMARKS
BAUDETTE       CLEAR     68  39  34 W5        30.09S
INTL FALLS     CLEAR     61  40  45 SW3       30.09S
WASKISH        CLEAR     66  43  42 CALM      30.12S
BIG FORK       CLEAR     61  39  44 CALM      30.14R
LONGVILLE      CLEAR     57  43  58 CALM      30.15S
GRAND RAPIDS   CLEAR     57  43  58 S3        30.16R
CRANE LAKE     CLEAR     59  43  55 CALM      30.12S
COOK           CLEAR     64  36  34 CALM      30.14R
WALKER         FAIR      65  43  44 CALM      30.14S
$$
MNZ012-019>021-037-230300-
   Northeast Minnesota

CITY           SKY/WX    TMP DP  RH WIND       PRES   REMARKS
DULUTH         CLEAR     62  36  37 S6        30.16R
ELY            CLEAR     64  34  32 SW3       30.13R
HIBBING        CLEAR     58  35  42 SW3       30.14S
EVELETH        CLEAR     59  36  41 CALM      30.16R
DULUTH HARBOR  CLEAR     43  37  81 N3        30.19R
TWO HARBORS    CLEAR     54  37  54 CALM      30.15R
SILVER BAY     CLEAR     50  34  53 CALM      30.14S
GRAND MARAIS     N/A     42  32  67 CALM      30.17S
G MARAIS ARPRT CLEAR     46  23  39 CALM      30.18S
$$
MNZ029>031-032-039>041-046>048-054>057-064-230300-
   West Central Minnesota

CITY           SKY/WX    TMP DP  RH WIND       PRES   REMARKS
FERGUS FALLS   PTCLDY    68  36  30 SE6       30.15R
WHEATON        MOCLDY    61  43  51 SE7       30.15S
MORRIS         PTCLDY    64  37  36 E6        30.14S
ALEXANDRIA     PTCLDY    65  33  30 E5        30.18R
ELBOW LAKE     FAIR      66  35  31 CALM      30.15S
WADENA         PTCLDY    63  39  42 CALM      30.16S
GLENWOOD       PTCLDY    64  37  36 E3        30.18R
APPLETON       MOCLDY    68  34  28 E5        30.13S
BENSON         MOCLDY    66  34  30 E5        30.15R
ORTONVILLE     MOCLDY    66  37  34 E8        30.13R
MADISON        MOCLDY    64  36  34 E8        30.13R
WILLMAR        FAIR      66  39  37 E8        30.17S
$$
MNZ033>034-036-042>043-049>051-058-059-230300-
   Central Minnesota

CITY           SKY/WX    TMP DP  RH WIND       PRES   REMARKS
ST CLOUD       PTCLDY    61  41  47 S3        30.18R
SAUK CENTRE    FAIR      64  37  36 E3        30.17S
PAYNESVILLE    PTCLDY    63  35  36 E5        30.18R
AITKIN         CLEAR     63  37  39 CALM      30.15S
PINE RIVER     CLEAR     64  43  45 S3        30.18S
BRAINERD       PTCLDY    62  39  42 S6        30.17R
STAPLES        PTCLDY    63  37  39 CALM      30.17R
LONG PRAIRIE   FAIR      61  37  41 E3        30.18S
LITTLE FALLS   PTCLDY    59  37  44 CALM      30.18S
LITCHFIELD     MOCLDY    64  39  39 E5        30.18S
BUFFALO        MOCLDY    66  39  37 CALM      30.19S
MAPLE LAKE     MOCLDY    62  45  54 CALM      30.19S
$$
MNZ037-044-045-052-053-230300-
   East Central Minnesota

CITY           SKY/WX    TMP DP  RH WIND       PRES   REMARKS
PRINCETON      PTCLDY    63  43  48 CALM      30.19R
MORA           PTCLDY    57  37  47 CALM      30.20R
CAMBRIDGE      PTCLDY    64  45  48 CALM      30.17R
RUSH CITY      PTCLDY    57  42  58 CALM      30.19R
MOOSE LAKE     PTCLDY    59  37  44 CALM      30.16R
HINCKLEY       FAIR      63  43  48 CALM      30.18R
CLOQUET        CLEAR     61  36  39 SW3       30.17R
MCGREGOR       CLEAR     63  37  39 S3        30.17R
$$
MNZ071>073-080-081-089-090-097-098-230300-
   Southwest Minnesota

CITY           SKY/WX    TMP DP  RH WIND       PRES   REMARKS
MONTEVIDEO     MOCLDY    64  39  39 SE5       30.15R
GRANITE FALLS  MOCLDY    67  33  28 E6        30.16R
CANBY          CLOUDY    65  33  30 E6        30.14S
MARSHALL       CLOUDY    70  30  23 SE10      30.13S
REDWOOD FALLS  MOCLDY    69  32  25 E8        30.15R
OLIVIA         MOCLDY    68  32  26 E5        30.15S
PIPESTONE      CLOUDY    61  41  48 W16       30.18R
WINDOM         CLOUDY    66  34  30 CALM      30.17R
WORTHINGTON    CLOUDY    63  37  39 W18G24    30.18R
JACKSON        CLOUDY    66  34  30 S6        30.18R
TRACY          CLOUDY    66  36  32 SE5       30.15R
SLAYTON        CLOUDY    65  39  39 W26       30.17R
$$
MNZ065>067-074>077-082>085-091>093-230300-
   South Central Minnesota

CITY           SKY/WX    TMP DP  RH WIND       PRES   REMARKS
MANKATO        CLOUDY    66  36  32 E6        30.17S
NEW ULM        CLOUDY    64  36  34 E6        30.16S
ST JAMES       CLOUDY    68  36  30 SE5       30.17S
FAIRMONT       CLOUDY    66  34  30 SE6       30.17R
GLENCOE        MOCLDY    65  40  40 E6        30.17S
FARIBAULT      CLOUDY    64  37  36 E3        30.19S
OWATONNA       CLOUDY    63  36  36 E6        30.19R
WASECA         CLOUDY    63  36  36 E5        30.19S
ALBERT LEA     CLOUDY    64  43  45 CALM      30.18S
$$
MNZ078>079-086>088-094>096-230300-
   Southeast Minnesota

CITY           SKY/WX    TMP DP  RH WIND       PRES   REMARKS
ROCHESTER      CLOUDY    63  37  38 E5        30.20S
RED WING       MOCLDY    61  45  55 CALM      30.18S
STANTON        CLOUDY    65  38  36 E5        30.18S
DODGE CENTER   CLOUDY    64  36  34 E5        30.20R
WINONA         CLOUDY    59  50  72 CALM      30.20S
AUSTIN         CLOUDY    63  45  51 CALM      30.19R
PRESTON        CLOUDY    62  35  36 CALM      30.21R
$$
ABBREVIATIONS USED IN REMARKS
   TC - TEMPERATURES IN CELSIUS
  WCI - WIND CHILL INDEX
   HX - HEAT INDEX
  VSB - VISIBILITY
$$



USA.gov is the U.S. government's official web portal to all federal, state and local government web resources and services.